SCP
0 0 0 0 0 0 0 0 0 0 0 0 0 0 0 0 0 0 -0 -0 -0 -0 -0 0 -0 -0 -0 -0 -0 -0 -0 -0 0 -0 -0 -0 -0 -0 -0 -0 -0 -0 -0 -0 -0 -0 -0 -0 -0
0 0 0 0 0 0 0 0 0 0 0 0 0 0 0 0 0 0 0 -0 -0 -0 0 -0 -0 -0 -0 -0 0 0 -0 -0 -0 -0 -0 -0 -0 -0 -0 -0 -0 -0 -0 -0 -0 -0 -0 -0 -0
0 0 0 0 0 0 0 0 0 0 0 0 0 0 0 0 0 0 -0 0 -0 -0 0 -0 0 0 0 -0 0 0 -0 -0 -0 -0 -0 -0 -0 -0 -0 -0 -0 -0 -0 -0 -0 -0 -0 -0 -0
0 0 0 0 0 0 0 -0 0 0 0 0 0 -0 0 -0 0 -0 -0 -0 -0 -0 0 0 0 0 0 -0 -0 0 -0 -0 -0 -0 -0 -0 -0 -0 -0 -0 -0 -0 -0 -0 -0 -0 -0 -0 -0
0 0 0 0 0 0 0 -0 0 0 0 0 0 0 0 -0 -0 -0 -0 -0 -0 0 0 0 0 0 0 0 -0 -0 -0 -0 -0 -0 -0 -0 -0 -0 -0 -0 -0 -0 -0 -0 -0 -0 -0 -0 -0
0 0 0 0 0 0 0 -0 0 0 0 0 0 0 0 0 -0 -0 -0 -0 -0 -0 0 0 0 0 0 0 0 -0 -0 -0 -0 -0 -0 -0 -0 -0 -0 -0 -0 -0 -0 -0 -0 -0 -0 -0 -0
0 0 0 0 0 0 0 0 0 0 0 0 0 0 0 0 -0 -0 -0 -0 -0 0 0 0 -0 0 0 0 0 -0 -0 -0 -0 -0 -0 -0 -0 -0 -0 -0 -0 -0 -0 -0 -0 -0 -0 -0 -0
0 0 0 0 0 0 0 0 0 0 0 0 0 -0 -0 0 -0 -0 -0 -0 -0 0 0 0 0 0 0 0 0 0 -0 -0 -0 -0 -0 -0 -0 -0 -0 -0 -0 -0 -0 -0 -0 -0 -0 -0 -0
0 0 0 0 0 0 0 0 0 0 0 0 0 0 -0 -0 -0 -0 -0 -0 0 0 0 0 0 0 0 0 0 -0 -0 -0 -0 -0 -0 0 0 0 0 0 0 0 0 0 0 0 0 0 0
0 0 0 0 0 0 0 0 0 0 0 0 0 0 -0 -0 -0 -0 -0 -0 -0 0 0 0 0 0 0 0 0 0 0 0 0 0 0 0 0 0 0 0 0 0 0 0 0 0 0 0 0
0 0 0 0 0 0 0 0 0 0 0 0 0 0 -0 -0 -0 -0 -0 -0 -0 -0 0 0 0 0 0 0 0 0 0 0 0 0 0 0 0 0 0 0 0 0 0 0 0 0 0 0 0
0 0 0 0 0 0 0 0 0 0 0 0 0 -0 -0 -0 -0 -0 -0 -0 -0 -0 -0 0 0 0 0 0 0 0 0 0 0 0 0 0 0 0 0 0 0 0 0 0 0 0 0 0 0
0 0 0 0 0 0 0 0 0 0 0 0 0 0 -0 -0 0 0 -0 0 0 0 0 0 0 0 0 0 0 0 0 0 0 0 0 0 0 0 0 0 0 0 0 0 0 0 0 0 0
0 0 0 0 0 0 0 0 0 0 0 0 0 0 0 -0 0 0 -0 -0 0 0 0 0 0 0 0 0 0 0 0 0 0 0 0 0 0 0 0 0 0 0 0 0 0 0 0 0 0
0 0 0 0 0 0 0 0 0 0 0 0 0 0 0 0 0 -0 -0 -0 -0 0 0 0 0 0 0 0 0 0 0 0 0 0 0 0 0 0 0 0 0 0 0 0 0 0 0 0 0
0 0 0 0 0 0 0 0 0 0 0 0 0 0 0 0 0 0 0 0 0 0 -0 0 0 0 0 0 0 0 0 0 0 0 0 0 0 0 0 0 0 0 0 0 0 0 0 0 0
0 0 0 0 0 0 0 0 0 0 0 0 0 0 0 0 0 0 0 0 0 -0 -0 -0 0 0 0 0 0 0 0 0 0 0 0 0 0 0 0 0 0 0 0 0 0 0 0 0 0
0 0 0 0 0 0 0 0 0 0 0 0 0 0 0 0 0 0 0 0 0 0 -0 -0 0 0 0 0 0 0 0 0 0 0 0 0 0 0 0 0 0 0 0 0 0 0 0 0 0
0 0 0 0 0 0 0 0 0 0 0 0 0 0 0 0 0 0 0 0 0 0 0 0 0 0 0 0 0 0 0 0 0 0 0 0 0 0 0 0 0 0 0 0 0 0 0 0 0
0 0 0 0 0 0 0 0 0 0 0 0 -0 -0 0 0 0 0 0 0 0 0 0 0 0 0 0 0 0 0 0 0 0 0 0 0 0 0 0 0 0 0 0 0 0 0 0 0 0
0 0 0 0 0 0 0 0 -0 0 0 0 0 0 0 0 0 0 0 0 0 0 0 0 0 0 0 0 0 0 0 0 0 0 0 0 0 0 0 0 0 0 0 0 0 0 0 0 0
0 0 0 0 0 0 0 0 -0 0 0 0 0 0 0 0 0 0 0 0 0 0 0 0 0 0 0 0 0 0 0 0 0 0 0 0 0 0 0 0 0 0 0 0 0 0 0 0 0
0 0 0 0 0 0 0 0 -0 0 0 0 0 0 0 0 0 0 0 -0 0 0 0 0 0 0 0 0 0 0 0 0 0 0 0 0 0 0 0 0 0 0 0 0 0 0 0 0 0
0 0 0 0 0 0 0 0 -0 0 0 0 0 0 0 0 0 0 0 0 0 0 0 0 0 0 0 0 0 0 0 0 0 0 0 0 0 0 0 0 0 0 0 0 0 0 0 0 0
0 0 0 0 0 0 0 0 0 0 0 0 0 0 0 0 0 0 0 0 0 0 0 0 0 0 0 0 0 0 0 0 0 0 0 0 0 0 0 0 0 0 0 0 0 0 0 0 0
0 0 0 0 0 0 0 0 0 0 0 0 0 0 0 0 0 0 0 0 0 0 0 0 0 0 0 0 0 0 0 0 0 0 0 0 0 0 0 0 0 0 0 0 0 0 0 0 0
0 0 0 0 0 0 0 0 0 0 0 0 0 0 0 0 0 0 0 0 0 0 0 0 0 0 0 0 0 0 0 0 0 0 0 0 0 0 0 0 0 0 0 0 0 0 0 0 0
0 0 0 0 0 0 0 0 0 0 0 0 0 0 0 0 0 0 0 0 0 0 0 0 0 0 0 0 0 0 0 0 0 0 0 0 0 0 0 0 0 0 0 0 0 0 0 0 0
0 0 0 0 0 0 0 0 0 0 0 0 0 0 0 0 0 0 0 0 0 0 0 0 0 0 0 0 0 0 0 0 0 0 0 0 0 0 0 0 0 0 0 0 0 0 0 0 0
0 0 0 0 0 0 0 0 0 0 0 0 0 0 0 0 0 0 0 0 0 0 0 0 0 0 0 0 0 0 0 0 0 0 0 0 0 0 0 0 0 0 0 0 0 0 0 0 0
Wind_Speed_500mb
12 11 12 9 8 9 4 4 3 5 7 8 16 24 17 14 5 5 29 17 31 30 25 18 21 23 23 24 24 21 20 19 21 24 25 29 30 32 33 34 33 33 32 33 34 35 40 40 37
10 10 6 5 9 6 7 6 6 2 21 34 24 19 16 4 7 25 32 21 26 29 20 19 20 21 23 25 24 21 20 23 22 23 16 29 34 28 34 30 33 33 34 35 36 39 41 37 31
8 11 3 7 6 4 7 5 11 12 14 9 13 22 8 7 26 30 24 30 30 30 23 19 19 20 20 24 25 23 19 26 25 27 20 27 28 29 32 31 31 34 36 37 37 38 36 33 29
5 6 2 7 5 3 13 12 12 14 11 8 30 19 11 17 30 21 35 28 34 30 23 21 23 24 27 28 29 24 27 29 23 27 22 20 25 25 27 31 32 35 36 37 36 35 34 32 31
6 2 5 3 3 2 4 22 23 9 8 17 9 9 19 26 21 30 33 28 31 30 27 26 27 27 33 33 29 28 26 22 25 20 19 21 23 24 25 30 32 33 34 33 33 34 33 32 32
3 2 5 5 3 6 7 23 17 10 13 16 16 18 16 23 29 41 33 32 26 26 29 28 28 29 31 29 30 27 19 19 16 16 18 22 22 23 27 28 29 30 30 31 33 33 32 30 28
4 5 7 7 1 5 7 15 18 20 16 6 27 11 17 41 36 40 36 34 31 24 27 27 26 27 29 29 28 27 21 15 16 17 19 22 22 22 25 26 27 28 28 30 31 31 30 27 23
1 6 5 5 4 7 7 6 16 26 8 22 15 14 13 48 42 38 38 37 31 25 26 28 26 27 26 29 28 24 18 17 16 18 20 24 24 23 24 23 24 25 26 27 27 25 23 20 18
2 6 3 5 10 7 13 8 7 12 20 11 10 13 10 52 50 45 44 39 36 32 30 30 29 29 30 26 30 25 21 17 16 19 22 24 24 23 23 22 21 22 22 22 20 17 15 14 14
4 6 11 3 8 10 17 15 19 11 15 6 12 15 29 53 59 56 53 47 44 40 36 35 32 30 31 31 30 28 26 21 17 19 21 22 22 22 21 20 20 19 19 17 14 12 12 11 9
6 9 7 4 8 20 13 16 11 21 6 20 24 31 44 57 63 59 54 48 46 41 39 36 34 30 29 30 28 31 30 25 23 21 20 21 22 22 22 20 18 17 15 12 11 10 9 6 6
4 12 10 3 0 3 13 20 12 21 10 15 20 27 44 59 69 63 60 53 50 50 47 38 34 33 29 31 31 30 33 30 28 22 20 19 18 17 17 17 16 15 13 11 9 9 6 5 2
7 5 3 12 13 14 14 12 11 16 17 17 19 38 45 55 64 64 61 55 54 54 54 45 39 36 31 28 32 35 34 33 30 26 20 19 18 16 16 16 15 13 12 10 9 7 6 3 4
5 21 16 8 14 12 11 3 6 6 23 25 33 45 47 52 59 56 64 65 65 61 56 51 47 40 36 33 33 34 36 33 32 28 24 22 21 21 20 18 16 15 12 10 8 9 7 3 2
24 5 3 13 12 5 3 10 10 11 20 30 40 48 48 51 57 56 61 66 70 67 61 60 54 46 44 39 34 38 37 36 34 30 29 27 25 23 21 21 20 18 16 15 15 13 11 10 10
11 4 5 8 14 7 13 13 12 36 30 41 48 50 52 52 55 52 54 58 55 57 70 64 60 57 51 48 40 41 39 38 36 35 34 31 29 28 27 26 24 23 21 20 22 19 14 10 10
4 8 12 5 27 7 12 8 21 28 34 47 55 57 56 53 52 51 53 58 55 55 56 66 67 64 60 54 47 45 44 43 40 39 37 35 36 34 31 30 27 26 23 23 24 22 15 12 12
10 8 7 15 14 11 11 17 17 24 14 53 58 61 61 59 54 47 49 61 59 57 57 57 64 68 68 61 56 51 51 50 47 44 42 41 40 38 36 34 33 31 28 29 28 24 19 15 15
11 8 12 6 10 13 17 24 22 49 27 30 41 49 67 67 52 49 46 62 66 62 66 66 64 67 75 74 70 66 59 56 55 51 47 47 46 43 43 42 40 38 37 34 30 28 24 21 23
6 12 11 10 6 12 13 26 21 26 28 54 60 58 57 65 71 62 58 61 74 71 71 69 67 67 72 80 79 74 64 58 57 55 53 53 51 48 46 44 43 40 37 35 35 35 34 28 30
16 12 9 11 4 7 5 19 11 19 45 62 65 70 73 65 63 68 69 63 70 78 74 75 72 71 70 79 84 81 74 67 65 66 62 60 56 53 51 46 43 43 41 36 31 34 36 34 36
30 19 8 7 6 8 8 13 10 14 33 29 62 73 81 80 74 66 70 72 71 72 70 71 74 76 71 75 85 88 83 79 74 70 67 63 61 59 56 51 47 46 46 45 42 38 41 43 43
15 21 16 7 6 1 8 7 12 8 13 23 38 72 88 80 81 76 74 78 75 71 67 70 75 79 75 74 80 84 87 85 78 75 72 69 66 65 61 57 55 55 53 53 51 51 47 48 51
13 13 10 6 4 18 17 16 17 15 16 17 27 56 63 81 80 75 73 70 77 75 73 71 74 79 77 75 77 81 81 82 83 81 78 74 70 70 70 65 64 63 62 60 58 54 55 49 53
13 25 7 11 11 23 10 16 35 13 20 16 26 47 48 51 58 81 76 77 79 80 77 77 76 75 77 79 78 81 81 80 81 81 81 79 75 76 76 72 70 71 69 66 63 63 59 55 57
48 35 12 17 9 13 5 17 12 27 65 56 43 37 30 40 49 55 67 78 78 78 79 80 81 75 76 79 80 80 81 84 83 84 83 81 80 78 75 75 73 74 74 72 71 70 64 65 71
34 35 15 12 6 6 10 14 16 21 21 32 56 59 45 35 29 26 31 53 71 77 77 77 77 75 76 75 80 84 85 86 87 85 85 85 83 81 79 76 74 75 76 79 80 82 82 78 78
41 26 12 2 12 10 10 11 15 14 30 18 18 45 48 40 32 27 24 30 34 47 56 62 66 67 69 71 73 77 81 85 86 88 89 88 86 84 81 81 77 75 76 75 81 86 87 91 90
12 32 12 12 9 11 4 13 16 26 34 21 25 43 39 32 33 28 23 21 22 27 40 47 53 56 61 67 72 77 79 81 83 87 89 89 88 89 86 82 77 73 75 76 79 80 84 89 96
20 30 35 19 25 7 6 12 6 20 11 23 29 35 36 37 33 27 22 20 18 17 19 27 39 48 52 57 63 68 71 74 79 83 82 84 84 84 82 80 79 74 74 75 78 79 79 86 83
Wind_Direction_500mb
317 316 317 326 48 60 341 55 110 114 58 53 88 93 101 64 58 179 138 154 152 159 153 151 145 158 154 143 132 120 111 98 78 94 85 93 90 96 91 91 90 89 88 88 92 98 104 101 94
305 295 311 56 82 55 291 316 125 270 129 106 80 82 56 63 92 137 150 163 165 160 158 153 143 157 159 155 148 132 127 114 108 105 82 118 106 97 96 89 91 91 90 90 92 100 107 109 103
290 305 318 92 111 159 173 247 148 122 138 135 104 79 81 114 131 152 163 160 168 167 157 139 150 156 160 159 152 142 140 131 130 122 104 100 106 105 98 93 91 92 93 93 95 102 106 109 106
273 276 47 93 154 270 166 195 165 134 102 99 122 76 85 132 150 161 156 167 171 160 146 151 149 147 150 152 156 158 148 146 160 129 127 99 101 102 101 96 97 96 96 96 98 103 106 105 101
246 286 59 73 187 176 137 176 163 136 122 121 123 128 124 149 172 167 168 173 179 157 160 156 146 143 140 140 143 146 151 166 141 125 116 111 110 107 104 101 99 100 100 101 102 103 104 101 97
223 87 72 197 243 143 164 188 162 129 132 128 106 111 152 163 164 174 181 178 186 173 166 160 149 145 147 147 148 146 145 156 133 130 124 117 118 110 104 106 104 103 105 107 106 106 106 102 96
115 90 205 167 10 139 186 161 151 151 143 97 141 102 146 164 174 185 190 184 180 184 176 168 163 156 156 157 161 158 157 160 144 137 132 123 120 116 113 113 112 114 114 113 111 110 107 102 95
54 117 204 193 188 219 176 105 136 147 147 131 172 160 176 173 177 188 195 191 191 192 187 181 177 169 164 168 168 170 169 161 148 144 141 135 133 131 123 121 122 120 117 116 115 113 110 106 100
241 73 235 193 166 192 165 127 112 141 139 140 147 160 173 168 171 185 186 186 189 195 196 193 188 183 175 176 180 180 180 174 163 155 149 145 144 140 134 129 125 121 120 121 121 116 109 104 102
207 136 209 299 186 171 168 157 145 143 134 146 150 167 164 171 176 186 190 195 199 202 201 199 198 197 189 183 184 186 188 186 178 169 158 152 147 144 140 139 138 134 133 135 131 126 117 111 91
202 196 213 342 87 146 151 142 149 153 218 205 196 173 172 178 186 190 195 204 208 205 209 201 200 202 206 200 195 194 196 200 196 185 172 162 156 156 156 156 153 149 148 149 141 133 130 105 71
203 236 240 165 150 223 169 157 173 188 205 225 235 199 181 186 191 195 195 199 207 207 209 205 200 201 201 208 206 204 203 204 208 200 188 183 171 172 170 170 170 168 165 168 168 162 160 144 84
207 267 242 250 243 215 186 181 191 226 219 204 207 191 192 195 196 200 199 204 207 212 212 205 206 201 203 209 209 210 209 208 211 212 204 198 190 196 193 192 188 189 188 192 194 188 191 181 68
252 234 252 240 197 201 187 186 202 213 222 200 197 196 200 204 201 202 204 208 210 214 219 205 214 208 209 218 215 214 212 210 215 216 211 211 210 214 207 206 204 213 212 217 221 204 211 203 252
229 335 212 206 191 226 209 292 222 183 196 203 200 202 204 208 207 217 214 212 213 220 219 211 213 217 216 221 223 220 215 216 218 217 218 218 219 222 219 224 224 228 231 230 229 217 217 210 206
153 205 141 229 163 242 163 251 247 229 206 204 204 206 209 214 219 225 219 217 218 219 218 215 214 218 222 223 225 225 222 222 221 220 222 225 226 229 227 232 236 240 239 234 231 225 228 238 251
334 176 181 237 199 152 183 254 245 241 224 217 210 211 214 220 222 227 223 214 213 216 219 219 221 221 225 227 229 235 228 227 225 224 228 231 233 234 236 241 242 244 258 251 235 228 230 243 258
177 154 186 196 215 199 210 242 269 269 242 227 220 219 221 223 231 228 222 215 219 220 225 226 224 223 225 227 229 236 233 232 229 227 229 232 236 240 242 245 244 247 247 251 235 232 237 245 258
163 170 185 220 224 179 222 246 246 256 255 252 242 226 228 231 238 231 226 218 216 222 227 229 227 223 222 224 225 230 232 231 232 230 232 233 235 239 243 246 246 247 247 255 248 234 225 235 247
230 203 229 294 268 188 263 255 242 253 249 247 248 248 236 237 236 234 225 218 218 224 225 229 231 227 226 226 230 234 239 239 239 236 235 236 238 240 242 248 248 247 244 242 238 231 229 233 243
215 202 184 214 210 198 333 269 220 249 246 253 253 252 246 233 234 232 227 223 220 225 226 230 231 229 230 230 230 234 238 240 239 237 237 238 239 241 243 244 246 247 244 241 234 232 234 243 245
211 169 201 210 193 222 138 279 251 237 241 242 244 243 243 240 235 241 231 227 226 231 234 233 238 235 234 231 231 234 239 239 241 241 242 243 243 245 247 247 248 250 248 244 240 241 242 249 253
219 166 174 139 172 222 196 259 269 222 245 245 238 237 241 243 241 238 235 231 234 233 235 238 240 237 236 235 234 237 239 244 246 247 249 247 249 250 250 250 249 249 248 247 245 243 245 252 253
147 84 72 84 135 241 201 207 236 207 213 247 248 249 242 244 241 239 237 238 234 237 236 236 241 239 238 238 238 240 243 244 246 248 250 252 252 252 252 252 250 249 248 246 246 246 245 249 258
166 156 178 212 204 246 206 207 247 232 238 228 248 254 251 248 246 240 236 234 235 236 239 238 239 242 242 242 241 242 245 247 250 252 252 253 253 252 253 253 251 249 248 247 246 244 247 249 251
192 173 165 187 196 232 99 232 248 227 236 241 247 242 245 241 238 239 240 236 237 243 242 240 240 241 243 244 246 246 247 248 251 254 255 256 257 258 259 258 257 257 254 251 249 246 250 254 250
190 199 156 92 33 92 220 283 297 264 253 234 228 234 249 236 217 227 234 240 242 242 244 245 243 244 246 250 251 252 253 254 256 257 259 261 263 263 264 263 261 260 259 256 253 251 253 255 256
185 172 168 43 154 222 251 266 230 226 233 233 210 219 223 218 219 225 235 239 240 238 238 244 245 247 252 255 255 257 259 260 261 263 265 267 268 269 270 271 269 266 264 263 262 258 257 258 258
153 190 190 153 167 188 199 251 212 204 221 210 212 212 202 203 199 205 216 220 219 223 229 237 243 246 248 251 254 257 260 263 264 264 266 269 272 274 274 275 274 272 268 266 261 264 265 265 262
205 197 188 190 211 227 162 270 227 232 243 199 195 202 192 184 173 164 170 174 176 190 212 230 241 247 250 251 252 253 255 258 261 265 267 268 268 272 275 276 273 272 269 262 264 267 269 273 268
Wind_Speed_850mb
12 11 12 9 8 9 4 4 3 5 7 8 16 24 17 14 5 5 29 17 31 30 25 18 21 23 23 24 24 21 20 19 21 24 25 29 30 32 33 34 33 33 32 33 34 35 40 40 37
10 10 6 5 9 6 7 6 6 2 21 34 24 19 16 4 7 25 32 21 26 29 20 19 20 21 23 25 24 21 20 23 22 23 16 29 34 28 34 30 33 33 34 35 36 39 41 37 31
8 11 3 7 6 4 7 5 11 12 14 9 13 22 8 7 26 30 24 30 30 30 23 19 19 20 20 24 25 23 19 26 25 27 20 27 28 29 32 31 31 34 36 37 37 38 36 33 29
5 6 2 7 5 3 13 12 12 14 11 8 30 19 11 17 30 21 35 28 34 30 23 21 23 24 27 28 29 24 27 29 23 27 22 20 25 25 27 31 32 35 36 37 36 35 34 32 31
6 2 5 3 3 2 4 22 23 9 8 17 9 9 19 26 21 30 33 28 31 30 27 26 27 27 33 33 29 28 26 22 25 20 19 21 23 24 25 30 32 33 34 33 33 34 33 32 32
3 2 5 5 3 6 7 23 17 10 13 16 16 18 16 23 29 41 33 32 26 26 29 28 28 29 31 29 30 27 19 19 16 16 18 22 22 23 27 28 29 30 30 31 33 33 32 30 28
4 5 7 7 1 5 7 15 18 20 16 6 27 11 17 41 36 40 36 34 31 24 27 27 26 27 29 29 28 27 21 15 16 17 19 22 22 22 25 26 27 28 28 30 31 31 30 27 23
1 6 5 5 4 7 7 6 16 26 8 22 15 14 13 48 42 38 38 37 31 25 26 28 26 27 26 29 28 24 18 17 16 18 20 24 24 23 24 23 24 25 26 27 27 25 23 20 18
2 6 3 5 10 7 13 8 7 12 20 11 10 13 10 52 50 45 44 39 36 32 30 30 29 29 30 26 30 25 21 17 16 19 22 24 24 23 23 22 21 22 22 22 20 17 15 14 14
4 6 11 3 8 10 17 15 19 11 15 6 12 15 29 53 59 56 53 47 44 40 36 35 32 30 31 31 30 28 26 21 17 19 21 22 22 22 21 20 20 19 19 17 14 12 12 11 9
6 9 7 4 8 20 13 16 11 21 6 20 24 31 44 57 63 59 54 48 46 41 39 36 34 30 29 30 28 31 30 25 23 21 20 21 22 22 22 20 18 17 15 12 11 10 9 6 6
4 12 10 3 0 3 13 20 12 21 10 15 20 27 44 59 69 63 60 53 50 50 47 38 34 33 29 31 31 30 33 30 28 22 20 19 18 17 17 17 16 15 13 11 9 9 6 5 2
7 5 3 12 13 14 14 12 11 16 17 17 19 38 45 55 64 64 61 55 54 54 54 45 39 36 31 28 32 35 34 33 30 26 20 19 18 16 16 16 15 13 12 10 9 7 6 3 4
5 21 16 8 14 12 11 3 6 6 23 25 33 45 47 52 59 56 64 65 65 61 56 51 47 40 36 33 33 34 36 33 32 28 24 22 21 21 20 18 16 15 12 10 8 9 7 3 2
24 5 3 13 12 5 3 10 10 11 20 30 40 48 48 51 57 56 61 66 70 67 61 60 54 46 44 39 34 38 37 36 34 30 29 27 25 23 21 21 20 18 16 15 15 13 11 10 10
11 4 5 8 14 7 13 13 12 36 30 41 48 50 52 52 55 52 54 58 55 57 70 64 60 57 51 48 40 41 39 38 36 35 34 31 29 28 27 26 24 23 21 20 22 19 14 10 10
4 8 12 5 27 7 12 8 21 28 34 47 55 57 56 53 52 51 53 58 55 55 56 66 67 64 60 54 47 45 44 43 40 39 37 35 36 34 31 30 27 26 23 23 24 22 15 12 12
10 8 7 15 14 11 11 17 17 24 14 53 58 61 61 59 54 47 49 61 59 57 57 57 64 68 68 61 56 51 51 50 47 44 42 41 40 38 36 34 33 31 28 29 28 24 19 15 15
11 8 12 6 10 13 17 24 22 49 27 30 41 49 67 67 52 49 46 62 66 62 66 66 64 67 75 74 70 66 59 56 55 51 47 47 46 43 43 42 40 38 37 34 30 28 24 21 23
6 12 11 10 6 12 13 26 21 26 28 54 60 58 57 65 71 62 58 61 74 71 71 69 67 67 72 80 79 74 64 58 57 55 53 53 51 48 46 44 43 40 37 35 35 35 34 28 30
16 12 9 11 4 7 5 19 11 19 45 62 65 70 73 65 63 68 69 63 70 78 74 75 72 71 70 79 84 81 74 67 65 66 62 60 56 53 51 46 43 43 41 36 31 34 36 34 36
30 19 8 7 6 8 8 13 10 14 33 29 62 73 81 80 74 66 70 72 71 72 70 71 74 76 71 75 85 88 83 79 74 70 67 63 61 59 56 51 47 46 46 45 42 38 41 43 43
15 21 16 7 6 1 8 7 12 8 13 23 38 72 88 80 81 76 74 78 75 71 67 70 75 79 75 74 80 84 87 85 78 75 72 69 66 65 61 57 55 55 53 53 51 51 47 48 51
13 13 10 6 4 18 17 16 17 15 16 17 27 56 63 81 80 75 73 70 77 75 73 71 74 79 77 75 77 81 81 82 83 81 78 74 70 70 70 65 64 63 62 60 58 54 55 49 53
13 25 7 11 11 23 10 16 35 13 20 16 26 47 48 51 58 81 76 77 79 80 77 77 76 75 77 79 78 81 81 80 81 81 81 79 75 76 76 72 70 71 69 66 63 63 59 55 57
48 35 12 17 9 13 5 17 12 27 65 56 43 37 30 40 49 55 67 78 78 78 79 80 81 75 76 79 80 80 81 84 83 84 83 81 80 78 75 75 73 74 74 72 71 70 64 65 71
34 35 15 12 6 6 10 14 16 21 21 32 56 59 45 35 29 26 31 53 71 77 77 77 77 75 76 75 80 84 85 86 87 85 85 85 83 81 79 76 74 75 76 79 80 82 82 78 78
41 26 12 2 12 10 10 11 15 14 30 18 18 45 48 40 32 27 24 30 34 47 56 62 66 67 69 71 73 77 81 85 86 88 89 88 86 84 81 81 77 75 76 75 81 86 87 91 90
12 32 12 12 9 11 4 13 16 26 34 21 25 43 39 32 33 28 23 21 22 27 40 47 53 56 61 67 72 77 79 81 83 87 89 89 88 89 86 82 77 73 75 76 79 80 84 89 96
20 30 35 19 25 7 6 12 6 20 11 23 29 35 36 37 33 27 22 20 18 17 19 27 39 48 52 57 63 68 71 74 79 83 82 84 84 84 82 80 79 74 74 75 78 79 79 86 83
Wind_Direction_850mb
317 316 317 326 48 60 341 55 110 114 58 53 88 93 101 64 58 179 138 154 152 159 153 151 145 158 154 143 132 120 111 98 78 94 85 93 90 96 91 91 90 89 88 88 92 98 104 101 94
305 295 311 56 82 55 291 316 125 270 129 106 80 82 56 63 92 137 150 163 165 160 158 153 143 157 159 155 148 132 127 114 108 105 82 118 106 97 96 89 91 91 90 90 92 100 107 109 103
290 305 318 92 111 159 173 247 148 122 138 135 104 79 81 114 131 152 163 160 168 167 157 139 150 156 160 159 152 142 140 131 130 122 104 100 106 105 98 93 91 92 93 93 95 102 106 109 106
273 276 47 93 154 270 166 195 165 134 102 99 122 76 85 132 150 161 156 167 171 160 146 151 149 147 150 152 156 158 148 146 160 129 127 99 101 102 101 96 97 96 96 96 98 103 106 105 101
246 286 59 73 187 176 137 176 163 136 122 121 123 128 124 149 172 167 168 173 179 157 160 156 146 143 140 140 143 146 151 166 141 125 116 111 110 107 104 101 99 100 100 101 102 103 104 101 97
223 87 72 197 243 143 164 188 162 129 132 128 106 111 152 163 164 174 181 178 186 173 166 160 149 145 147 147 148 146 145 156 133 130 124 117 118 110 104 106 104 103 105 107 106 106 106 102 96
115 90 205 167 10 139 186 161 151 151 143 97 141 102 146 164 174 185 190 184 180 184 176 168 163 156 156 157 161 158 157 160 144 137 132 123 120 116 113 113 112 114 114 113 111 110 107 102 95
54 117 204 193 188 219 176 105 136 147 147 131 172 160 176 173 177 188 195 191 191 192 187 181 177 169 164 168 168 170 169 161 148 144 141 135 133 131 123 121 122 120 117 116 115 113 110 106 100
241 73 235 193 166 192 165 127 112 141 139 140 147 160 173 168 171 185 186 186 189 195 196 193 188 183 175 176 180 180 180 174 163 155 149 145 144 140 134 129 125 121 120 121 121 116 109 104 102
207 136 209 299 186 171 168 157 145 143 134 146 150 167 164 171 176 186 190 195 199 202 201 199 198 197 189 183 184 186 188 186 178 169 158 152 147 144 140 139 138 134 133 135 131 126 117 111 91
202 196 213 342 87 146 151 142 149 153 218 205 196 173 172 178 186 190 195 204 208 205 209 201 200 202 206 200 195 194 196 200 196 185 172 162 156 156 156 156 153 149 148 149 141 133 130 105 71
203 236 240 165 150 223 169 157 173 188 205 225 235 199 181 186 191 195 195 199 207 207 209 205 200 201 201 208 206 204 203 204 208 200 188 183 171 172 170 170 170 168 165 168 168 162 160 144 84
207 267 242 250 243 215 186 181 191 226 219 204 207 191 192 195 196 200 199 204 207 212 212 205 206 201 203 209 209 210 209 208 211 212 204 198 190 196 193 192 188 189 188 192 194 188 191 181 68
252 234 252 240 197 201 187 186 202 213 222 200 197 196 200 204 201 202 204 208 210 214 219 205 214 208 209 218 215 214 212 210 215 216 211 211 210 214 207 206 204 213 212 217 221 204 211 203 252
229 335 212 206 191 226 209 292 222 183 196 203 200 202 204 208 207 217 214 212 213 220 219 211 213 217 216 221 223 220 215 216 218 217 218 218 219 222 219 224 224 228 231 230 229 217 217 210 206
153 205 141 229 163 242 163 251 247 229 206 204 204 206 209 214 219 225 219 217 218 219 218 215 214 218 222 223 225 225 222 222 221 220 222 225 226 229 227 232 236 240 239 234 231 225 228 238 251
334 176 181 237 199 152 183 254 245 241 224 217 210 211 214 220 222 227 223 214 213 216 219 219 221 221 225 227 229 235 228 227 225 224 228 231 233 234 236 241 242 244 258 251 235 228 230 243 258
177 154 186 196 215 199 210 242 269 269 242 227 220 219 221 223 231 228 222 215 219 220 225 226 224 223 225 227 229 236 233 232 229 227 229 232 236 240 242 245 244 247 247 251 235 232 237 245 258
163 170 185 220 224 179 222 246 246 256 255 252 242 226 228 231 238 231 226 218 216 222 227 229 227 223 222 224 225 230 232 231 232 230 232 233 235 239 243 246 246 247 247 255 248 234 225 235 247
230 203 229 294 268 188 263 255 242 253 249 247 248 248 236 237 236 234 225 218 218 224 225 229 231 227 226 226 230 234 239 239 239 236 235 236 238 240 242 248 248 247 244 242 238 231 229 233 243
215 202 184 214 210 198 333 269 220 249 246 253 253 252 246 233 234 232 227 223 220 225 226 230 231 229 230 230 230 234 238 240 239 237 237 238 239 241 243 244 246 247 244 241 234 232 234 243 245
211 169 201 210 193 222 138 279 251 237 241 242 244 243 243 240 235 241 231 227 226 231 234 233 238 235 234 231 231 234 239 239 241 241 242 243 243 245 247 247 248 250 248 244 240 241 242 249 253
219 166 174 139 172 222 196 259 269 222 245 245 238 237 241 243 241 238 235 231 234 233 235 238 240 237 236 235 234 237 239 244 246 247 249 247 249 250 250 250 249 249 248 247 245 243 245 252 253
147 84 72 84 135 241 201 207 236 207 213 247 248 249 242 244 241 239 237 238 234 237 236 236 241 239 238 238 238 240 243 244 246 248 250 252 252 252 252 252 250 249 248 246 246 246 245 249 258
166 156 178 212 204 246 206 207 247 232 238 228 248 254 251 248 246 240 236 234 235 236 239 238 239 242 242 242 241 242 245 247 250 252 252 253 253 252 253 253 251 249 248 247 246 244 247 249 251
192 173 165 187 196 232 99 232 248 227 236 241 247 242 245 241 238 239 240 236 237 243 242 240 240 241 243 244 246 246 247 248 251 254 255 256 257 258 259 258 257 257 254 251 249 246 250 254 250
190 199 156 92 33 92 220 283 297 264 253 234 228 234 249 236 217 227 234 240 242 242 244 245 243 244 246 250 251 252 253 254 256 257 259 261 263 263 264 263 261 260 259 256 253 251 253 255 256
185 172 168 43 154 222 251 266 230 226 233 233 210 219 223 218 219 225 235 239 240 238 238 244 245 247 252 255 255 257 259 260 261 263 265 267 268 269 270 271 269 266 264 263 262 258 257 258 258
153 190 190 153 167 188 199 251 212 204 221 210 212 212 202 203 199 205 216 220 219 223 229 237 243 246 248 251 254 257 260 263 264 264 266 269 272 274 274 275 274 272 268 266 261 264 265 265 262
205 197 188 190 211 227 162 270 227 232 243 199 195 202 192 184 173 164 170 174 176 190 212 230 241 247 250 251 252 253 255 258 261 265 267 268 268 272 275 276 273 272 269 262 264 267 269 273 268